[[{"header":{"parameterUnit":"m.s-1","parameterCategory":1,"la1":30.2991,"la2":30.254,"lo1":-89.0895,"lo2":-89.0444,"dy":0.0017,"dx":0.0017,"nx":28,"ny":28,"refTime":"2024-10-15T03:00:00:Z","depth":0,"parameterNumber":2,"parameterNumberName":"U-component_of_WINDS"},"data":[0,0,0,0,0,0,0,0,0,0,0,0,0,0,0,0,0,0,0,0,0,0,0,0,0,0,0,0,0,0,0,0,0,0,0,0,0,0,0,0,0,0,0,0,0,0,0,0,0,0,0,0,0,0,0,0,0,0,-3.1959,-3.1959,0,-3.1985,-3.1985,-3.1985,-3.1932,-3.193,-3.1928,-3.1927,-3.1953,-3.1955,-3.1957,0,0,0,0,0,0,0,0,0,0,0,0,0,-3.1862,-3.1864,-3.1959,-3.1959,-3.1959,-3.1985,-3.1985,-3.1985,-3.1932,-3.193,-3.1928,-3.1926,-3.1952,-3.1955,-3.1957,0,0,0,0,0,0,0,0,0,0,0,0,0,-3.1898,-3.1865,-3.1959,-3.1936,-3.1934,-3.1985,-3.1985,-3.1985,-3.1932,-3.193,-3.1927,-3.1925,-3.1951,-3.1954,-3.1958,-3.2031,0,0,-3.1968,-3.197,0,0,0,0,0,0,0,0,-3.1896,-3.1901,-3.1939,-3.1938,-3.1936,-3.1952,-3.196,-3.2001,-3.1933,-3.1933,-3.1927,-3.1923,-3.1955,-3.1958,-3.1968,-3.2033,-3.2034,-3.1969,-3.1971,-3.1972,-3.1973,0,0,0,0,0,0,0,-3.1893,-3.19,-3.1969,-3.1939,-3.1938,-3.1924,-3.1926,-3.1968,-3.1958,-3.1933,-3.1929,-3.1933,-3.1953,-3.1965,-3.1968,-3.2034,-3.1969,-3.1972,-3.1974,-3.1975,-3.2161,-3.2163,0,0,0,0,0,0,-3.1894,-3.1898,-3.1968,-3.197,-3.1909,-3.1928,-3.193,-3.195,-3.1958,-3.1956,-3.1935,-3.193,-3.196,-3.1964,-3.1969,-3.2056,-3.1972,-3.1975,-3.1977,-3.2158,-3.2161,-3.2164,0,0,0,0,0,0,-3.1892,-3.1901,-3.1967,-3.1933,-3.194,-3.1932,-3.1954,-3.1951,-3.1963,-3.1959,-3.1957,-3.1949,-3.1958,-3.1964,-3.2016,-3.2056,-3.1977,-3.198,-3.2154,-3.2159,-3.2163,-3.2231,0,0,0,0,0,0,-3.1889,-3.19,-3.1928,-3.1934,-3.1942,-3.2015,-3.1957,-3.1954,-3.1969,-3.1963,-3.1972,-3.1971,-3.1957,-3.2012,-3.202,-3.206,-3.1983,-3.2151,-3.2156,-3.2161,-3.2225,-3.2237,-3.2247,0,0,0,0,0,-3.1886,-3.1947,-3.193,-3.1939,-3.1978,-3.2017,-3.2022,-3.2005,-3.1973,-3.2001,-3.1998,-3.197,-3.2051,-3.2017,-3.2026,-3.2068,-3.2148,-3.2155,-3.2161,-3.222,-3.2235,-3.2247,0,0,0,0,0,0,-3.1946,-3.1947,-3.1929,-3.1993,-3.2005,-3.2008,-3.2043,-3.2021,-3.2042,-3.2036,-3.2013,-3.2016,-3.2073,-3.2075,-3.2038,-3.214,-3.2094,-3.2102,-3.2136,-3.215,-3.2161,-3.2159,-3.1986,0,0,0,0,0,-3.1966,-3.1999,-3.1998,-3.2054,-3.2061,-3.2051,-3.2068,-3.2054,-3.2065,-3.207,-3.2072,-3.2084,-3.2112,-3.2131,-3.2156,-3.2225,-3.2226,-3.2258,-3.2269,-3.2278,-3.2286,-3.2323,-3.2337,-3.2185,-3.2185,-3.2185,0,0,-3.2009,-3.2014,-3.2036,-3.2066,-3.2074,-3.2108,-3.2056,-3.2094,-3.2118,-3.2076,-3.2126,-3.2127,-3.2139,-3.22,-3.2227,-3.2204,-3.2328,-3.2286,-3.2294,-3.2297,-3.2331,-3.2345,-3.2358,-3.219,-3.2189,-3.2188,0,0,-3.2105,-3.2112,-3.216,-3.2169,-3.2181,-3.2174,-3.2186,-3.2192,-3.2191,-3.2241,-3.2209,-3.2238,-3.2287,-3.2297,-3.2308,-3.2408,-3.2383,-3.2416,-3.2475,-3.2511,-3.2523,-3.2533,-3.2569,-3.2582,-3.2424,-3.2424,-3.2424,0,-3.2157,-3.2207,-3.2187,-3.2227,-3.2242,-3.2205,-3.2253,-3.2263,-3.2283,-3.2294,-3.2268,-3.2328,-3.2334,-3.2397,-3.2421,-3.2431,-3.2444,-3.2416,-3.2523,-3.2533,-3.2542,-3.2576,-3.259,-3.2428,-3.2428,-3.2427,-3.2427,0,-3.227,-3.2305,-3.2342,-3.2363,-3.2381,-3.2426,-3.2412,-3.2433,-3.2417,-3.2413,-3.2464,-3.2469,-3.2495,-3.2509,-3.2493,-3.257,-3.2555,-3.2526,-3.248,-3.2561,-3.2593,-3.2606,-3.2434,-3.2433,-3.2431,-3.243,0,0,-3.2404,-3.2414,-3.2428,-3.2437,-3.2448,-3.2475,-3.2517,-3.2543,-3.2561,-3.2576,-3.2611,-3.2653,-3.2626,-3.2639,-3.2625,-3.2657,-3.2735,-3.2624,-3.2623,-3.2645,-3.282,-3.2842,-3.2858,-3.2718,-3.2721,-3.2723,-3.2819,0,-3.25,-3.2573,-3.2556,-3.2628,-3.266,-3.2626,-3.2662,-3.2673,-3.267,-3.2696,-3.2692,-3.2723,-3.2685,-3.2693,-3.2722,-3.272,-3.277,-3.2712,-3.2751,-3.2753,-3.275,-3.2874,-3.2898,-3.2989,-3.2831,-3.2833,-3.2835,0,-3.2621,-3.2641,-3.2716,-3.2722,-3.2735,-3.2769,-3.2791,-3.2817,-3.2828,-3.2823,-3.2838,-3.2817,-3.2858,-3.2811,-3.2868,-3.2829,-3.2844,-3.2845,-3.2848,-3.2851,-3.2799,-3.2882,-3.3017,-3.3031,-3.2854,-3.2852,-3.2851,0,-3.2712,-3.2758,-3.2809,-3.2818,-3.2826,-3.285,-3.2855,-3.2864,-3.288,-3.2899,-3.291,-3.2933,-3.2946,-3.2965,-3.2951,-3.2918,-3.3011,-3.2962,-3.3008,-3.3009,-3.303,-3.3029,-3.317,-3.3038,-3.3038,-3.3038,-3.3037,0,-3.2821,-3.2868,-3.285,-3.2882,-3.2934,-3.2914,-3.2967,-3.2967,-3.2975,-3.3006,-3.2976,-3.3006,-3.2985,-3.3013,-3.3002,-3.3051,-3.3057,-3.3054,-3.3051,-3.3058,-3.3058,-3.3067,-3.3061,-3.3041,-3.3041,-3.304,-3.3039,0,-3.2932,-3.2922,-3.2976,-3.2979,-3.2981,-3.3019,-3.3022,-3.3051,-3.3045,-3.3085,-3.3093,-3.3084,-3.3115,-3.3103,-3.3135,-3.3128,-3.3191,-3.3179,-3.3187,-3.3185,-3.3232,-3.3228,-3.3385,-3.3404,-3.3259,-3.326,-3.3262,0,-3.3003,-3.3039,-3.3046,-3.3065,-3.3071,-3.3102,-3.3118,-3.31,-3.3118,-3.3134,-3.3161,-3.319,-3.3212,-3.3263,-3.3259,-3.3284,-3.3273,-3.3326,-3.3276,-3.3282,-3.3274,-3.3273,-3.3276,-3.3336,-3.3338,-3.3339,-3.334,0,-3.3129,-3.3122,-3.3147,-3.3171,-3.3192,-3.321,-3.3225,-3.3242,-3.3224,-3.3246,-3.3278,-3.3295,-3.3328,-3.3357,-3.3379,-3.3383,-3.3359,-3.3356,-3.3368,-3.3375,-3.3379,-3.3378,-3.3215,-3.3353,-3.3351,-3.3351,-3.335,-3.3349,-3.3222,-3.3253,-3.3263,-3.3292,-3.3301,-3.3316,-3.3344,-3.3342,-3.3368,-3.3394,-3.3381,-3.3418,-3.3428,-3.3455,-3.3462,-3.349,-3.347,-3.3487,-3.3492,-3.3496,-3.3503,-3.3374,-3.3494,-3.3494,-3.3494,-3.3493,-3.3493,0,-3.3348,-3.3352,-3.3379,-3.3402,-3.3425,-3.34,-3.3415,-3.3436,-3.3469,-3.348,-3.3502,-3.3539,-3.3566,-3.3565,-3.359,-3.3613,-3.3603,-3.362,-3.3619,-3.362,-3.352,-3.3507,-3.3628,-3.3628,-3.3628,-3.3628,-3.3628,-3.3628,-3.3416,-3.3466,-3.346,-3.3515,-3.3519,-3.3555,-3.3566,-3.3579,-3.3588,-3.363,-3.3653,-3.3652,-3.3658,-3.3683,-3.3708,-3.3706,-3.3717,-3.3739,-3.3734,-3.3641,-3.3627,-3.3614,-3.3602,-3.3742,-3.3742,-3.3832,-3.3833,-3.3834]},{"header":{"parameterUnit":"m.s-1","parameterCategory":1,"la1":30.2991,"la2":30.254,"lo1":-89.0895,"lo2":-89.0444,"dy":0.0017,"dx":0.0017,"nx":28,"ny":28,"refTime":"2024-10-15T03:00:00:Z","depth":0,"parameterNumber":3,"parameterNumberName":"V-component_of_WINDS"},"data":[0,0,0,0,0,0,0,0,0,0,0,0,0,0,0,0,0,0,0,0,0,0,0,0,0,0,0,0,0,0,0,0,0,0,0,0,0,0,0,0,0,0,0,0,0,0,0,0,0,0,0,0,0,0,0,0,0,0,-6.8137,-6.8138,0,-6.8195,-6.8195,-6.8196,-6.8147,-6.8145,-6.8143,-6.8141,-6.8194,-6.8198,-6.8201,0,0,0,0,0,0,0,0,0,0,0,0,0,-6.7981,-6.7984,-6.8137,-6.8138,-6.8139,-6.8194,-6.8195,-6.8196,-6.8147,-6.8145,-6.8142,-6.814,-6.8193,-6.8197,-6.8201,0,0,0,0,0,0,0,0,0,0,0,0,0,-6.8044,-6.7985,-6.8137,-6.8121,-6.812,-6.8194,-6.8195,-6.8196,-6.8148,-6.8145,-6.8142,-6.8139,-6.8192,-6.8197,-6.8202,-6.8293,0,0,-6.8217,-6.8219,0,0,0,0,0,0,0,0,-6.8041,-6.805,-6.8123,-6.8122,-6.8121,-6.8161,-6.816,-6.8228,-6.8148,-6.8137,-6.8141,-6.8137,-6.8185,-6.8191,-6.8208,-6.8295,-6.8298,-6.8217,-6.822,-6.8222,-6.8224,0,0,0,0,0,0,0,-6.8036,-6.8047,-6.816,-6.8124,-6.8123,-6.8109,-6.8115,-6.8172,-6.8177,-6.8138,-6.8134,-6.8142,-6.8184,-6.8203,-6.8209,-6.8298,-6.8217,-6.8222,-6.8225,-6.8227,-6.8464,-6.8468,0,0,0,0,0,0,-6.8034,-6.8044,-6.8158,-6.8161,-6.8073,-6.8115,-6.8121,-6.8151,-6.8177,-6.8178,-6.8145,-6.814,-6.8196,-6.8203,-6.821,-6.832,-6.8222,-6.8227,-6.823,-6.8461,-6.8465,-6.8469,0,0,0,0,0,0,-6.8031,-6.8045,-6.8155,-6.8102,-6.8115,-6.8121,-6.8155,-6.8154,-6.8173,-6.8182,-6.8182,-6.8163,-6.8194,-6.8203,-6.8273,-6.8321,-6.8229,-6.8234,-6.8457,-6.8462,-6.8467,-6.8538,0,0,0,0,0,0,-6.8027,-6.8044,-6.808,-6.8103,-6.8118,-6.8219,-6.8157,-6.8157,-6.8182,-6.8176,-6.8199,-6.82,-6.8192,-6.8266,-6.8278,-6.8326,-6.8238,-6.8453,-6.8459,-6.8465,-6.8532,-6.8545,-6.8557,0,0,0,0,0,-6.8021,-6.8096,-6.8082,-6.8096,-6.8163,-6.8222,-6.823,-6.8221,-6.8186,-6.8221,-6.8227,-6.82,-6.8314,-6.8274,-6.8287,-6.8337,-6.845,-6.8458,-6.8465,-6.8526,-6.8542,-6.8556,0,0,0,0,0,0,-6.8076,-6.8099,-6.8083,-6.8168,-6.8194,-6.8214,-6.8258,-6.8239,-6.8273,-6.8266,-6.8251,-6.8257,-6.8331,-6.834,-6.8296,-6.8427,-6.8376,-6.8386,-6.8418,-6.8433,-6.8446,-6.8442,-6.8242,0,0,0,0,0,-6.8099,-6.8146,-6.8163,-6.8236,-6.825,-6.8252,-6.8277,-6.8268,-6.8293,-6.8303,-6.8314,-6.8338,-6.8379,-6.8407,-6.8445,-6.8533,-6.8537,-6.8573,-6.8586,-6.8596,-6.8605,-6.8653,-6.8669,-6.8493,-6.8493,-6.8493,0,0,-6.8144,-6.8163,-6.8193,-6.8248,-6.8266,-6.8315,-6.8261,-6.8314,-6.835,-6.831,-6.8378,-6.8387,-6.8413,-6.8492,-6.8528,-6.8503,-6.8655,-6.8606,-6.8614,-6.8617,-6.8662,-6.8679,-6.8694,-6.8498,-6.8498,-6.8497,0,0,-6.8253,-6.8272,-6.8336,-6.8356,-6.8386,-6.8387,-6.8403,-6.8426,-6.8431,-6.8499,-6.8471,-6.8512,-6.8583,-6.8603,-6.8622,-6.874,-6.8716,-6.8752,-6.8817,-6.8864,-6.8878,-6.889,-6.8932,-6.8948,-6.8762,-6.8762,-6.8762,0,-6.8306,-6.838,-6.837,-6.8427,-6.8451,-6.842,-6.8484,-6.8503,-6.8543,-6.856,-6.8532,-6.8622,-6.8637,-6.8721,-6.875,-6.8766,-6.8783,-6.875,-6.8877,-6.8889,-6.89,-6.894,-6.8956,-6.8766,-6.8766,-6.8765,-6.8765,0,-6.8443,-6.8495,-6.8542,-6.8585,-6.8614,-6.8674,-6.8672,-6.8703,-6.8692,-6.8696,-6.8765,-6.8782,-6.8824,-6.8843,-6.8831,-6.8926,-6.8909,-6.8879,-6.8828,-6.8922,-6.8959,-6.8974,-6.8772,-6.8771,-6.8769,-6.8768,0,0,-6.8588,-6.8626,-6.8643,-6.8662,-6.8694,-6.8732,-6.879,-6.8833,-6.886,-6.8888,-6.8936,-6.8998,-6.8971,-6.8993,-6.8983,-6.9024,-6.9117,-6.8989,-6.8989,-6.9012,-6.9222,-6.9245,-6.9263,-6.9101,-6.9104,-6.9106,-6.922,0,-6.8699,-6.8802,-6.8796,-6.8892,-6.8939,-6.8911,-6.8961,-6.8985,-6.899,-6.9029,-6.9034,-6.9078,-6.9039,-6.9052,-6.9091,-6.9097,-6.9159,-6.9089,-6.9144,-6.9146,-6.914,-6.9283,-6.9307,-6.9414,-6.9235,-6.9237,-6.9239,0,-6.8841,-6.8878,-6.898,-6.9005,-6.9024,-6.907,-6.9109,-6.9148,-6.9174,-6.9175,-6.92,-6.9184,-6.9241,-6.9189,-6.9267,-6.922,-6.9242,-6.9248,-6.9252,-6.9257,-6.9199,-6.9292,-6.9448,-6.9464,-6.9262,-6.926,-6.9258,0,-6.8938,-6.9012,-6.9083,-6.91,-6.913,-6.9163,-6.9177,-6.9201,-6.9227,-6.9261,-6.9278,-6.9317,-6.9338,-6.9368,-6.9362,-6.9325,-6.9442,-6.9389,-6.9444,-6.9444,-6.947,-6.9469,-6.9632,-6.9484,-6.9484,-6.9484,-6.9483,0,-6.9062,-6.9126,-6.9126,-6.917,-6.924,-6.9232,-6.9301,-6.931,-6.9332,-6.9376,-6.9352,-6.9394,-6.9384,-6.9424,-6.942,-6.9486,-6.9495,-6.9497,-6.9495,-6.9499,-6.9499,-6.9514,-6.9506,-6.9488,-6.9487,-6.9486,-6.9485,0,-6.9182,-6.9185,-6.926,-6.9284,-6.9291,-6.9342,-6.9362,-6.9402,-6.9406,-6.9462,-6.9474,-6.9479,-6.9526,-6.9524,-6.9576,-6.9573,-6.9654,-6.9643,-6.9646,-6.9644,-6.9699,-6.9694,-6.9878,-6.9902,-6.9738,-6.974,-6.9741,0,-6.9261,-6.931,-6.934,-6.9369,-6.9386,-6.9432,-6.946,-6.9453,-6.9482,-6.9516,-6.9553,-6.9598,-6.9634,-6.971,-6.9717,-6.9757,-6.9747,-6.9809,-6.9753,-6.9756,-6.9749,-6.9746,-6.9751,-6.982,-6.9822,-6.9823,-6.9824,0,-6.9403,-6.9402,-6.9444,-6.9487,-6.9521,-6.9554,-6.9584,-6.9608,-6.9604,-6.9638,-6.9687,-6.9715,-6.977,-6.9815,-6.9853,-6.9865,-6.9845,-6.9842,-6.9857,-6.9862,-6.9862,-6.9864,-6.9677,-6.9838,-6.9836,-6.9835,-6.9835,-6.9834,-6.9505,-6.9547,-6.9576,-6.9623,-6.9645,-6.9674,-6.9714,-6.9723,-6.9765,-6.981,-6.9803,-6.9858,-6.9882,-6.9932,-6.9949,-6.999,-6.9968,-6.9989,-6.9995,-7.0,-7.0007,-6.9856,-6.9997,-6.9997,-6.9996,-6.9996,-6.9996,0,-6.9645,-6.9663,-6.9707,-6.9751,-6.9788,-6.9767,-6.9799,-6.9831,-6.988,-6.9906,-6.9943,-6.9999,-7.0043,-7.0054,-7.0096,-7.0127,-7.0118,-7.0138,-7.0136,-7.0139,-7.0024,-7.0008,-7.0145,-7.0145,-7.0145,-7.0144,-7.0144,-7.0144,-6.9723,-6.9794,-6.9797,-6.9879,-6.9894,-6.995,-6.997,-6.9996,-7.0017,-7.0082,-7.0119,-7.0127,-7.0147,-7.019,-7.0229,-7.0231,-7.0247,-7.0271,-7.027,-7.0162,-7.0147,-7.0133,-7.0117,-7.0275,-7.0275,-7.0381,-7.0382,-7.0383]}]]